Flag for Mexico Weather past 2 weeks in Ojinaga, Chihuahua, Mexico

Now
46 °F

Clear.


Feels Like: 45 °F
Forecast: 53 / 89 °F
Wind: 3 mph from North

Location: Marfa Municipal Airport

Current Time: Apr 2, 2015 at 1:26:57 AM

Latest Report: Apr 2, 2015 at 12:55 AM


Visibility: 10 mi

Pressure: 30.04 "Hg

Humidity: 66%

Dew point: 36 °F

Location of OjinagaLocation

Historic Weather in Ojinaga — Graph

°F

Ojinaga temperature yesterday

Maximum temperature yesterday: 79 °F (at 3:35 PM)
Minimum temperature yesterday: 39 °F (at 6:55 AM)
Average temperature yesterday: 60 °F

Past Weeks' High & Low Weather Summary

 TemperatureHumidityPressure
High84 °F (Mar 29, 1:35 PM)100% (Mar 18, 2:35 AM)30.35 "Hg (Mar 18, 2:35 AM)
Low28 °F (Mar 27, 5:35 AM)10% (Mar 28, 5:15 PM)29.98 "Hg (Apr 1, 3:55 PM)
Average56 °F58%30.16 "Hg
* Reported Mar 18 12:15 AM — Apr 2 12:15 AM, Ojinaga, Weather by CustomWeather, © 2015

Note: Actual official high and low records may vary slightly from our data, if they occured in-between our weather recording intervals... More about our weather records

Advertising

Ojinaga weather history for previous 24 hours

 ConditionsComfort  
Time TempWeatherWind HumidityBarometerVisibility
12:15 AM
Thu, Apr 2
48 °FClear.No wind62%30.04 "Hg10 mi
11:55 PM
Wed, Apr 1
50 °FClear.3 mph58%30.04 "Hg10 mi
11:35 PMN/AClear.6 mphN/A30.04 "Hg10 mi
11:15 PM48 °FClear.3 mph62%30.04 "Hg10 mi
10:55 PM52 °FClear.No wind50%30.05 "Hg10 mi
10:35 PMN/AClear.9 mphN/A30.03 "Hg10 mi
10:15 PM54 °FClear.8 mph51%30.04 "Hg10 mi
9:55 PM54 °FClear.7 mph51%30.04 "Hg10 mi
9:35 PM55 °FClear.7 mph47%30.03 "Hg10 mi
8:55 PM57 °FClear.8 mph44%30.02 "Hg10 mi
8:35 PM59 °FClear.7 mph42%30.01 "Hg10 mi
8:15 PM61 °FClear.7 mph39%30.00 "Hg10 mi
7:55 PM63 °FSunny.5 mph37%29.99 "Hg10 mi
7:35 PM64 °FPassing clouds.6 mph34%29.99 "Hg10 mi
7:15 PMN/AScattered clouds.5 mphN/A29.99 "Hg10 mi
6:55 PM72 °FSunny.5 mph25%29.98 "Hg10 mi
6:35 PM73 °FSunny.10 mph23%29.98 "Hg10 mi
6:15 PM75 °FSunny.14 mph22%29.98 "Hg10 mi
5:55 PM75 °FSunny.9 mph22%29.99 "Hg10 mi
5:35 PM75 °FSunny.16 mph22%29.98 "Hg10 mi
5:15 PM75 °FSunny.15 mph22%29.98 "Hg10 mi
4:55 PM77 °FSunny.17 mph22%29.98 "Hg10 mi
4:35 PM79 °FSunny.18 mph20%29.99 "Hg10 mi
4:15 PM79 °FSunny.15 mph21%29.99 "Hg10 mi
3:55 PM79 °FPassing clouds.14 mph21%29.98 "Hg10 mi
3:35 PM79 °FSunny.12 mph23%29.99 "Hg10 mi
2:55 PM77 °FSunny.17 mph24%30.00 "Hg10 mi
2:35 PM77 °FSunny.17 mph24%30.00 "Hg10 mi
2:15 PM75 °FSunny.13 mph27%30.00 "Hg10 mi
1:55 PM75 °FSunny.14 mph27%30.01 "Hg10 mi
1:35 PM75 °FSunny.9 mph27%30.03 "Hg10 mi
1:15 PM75 °FSunny.15 mph31%30.03 "Hg10 mi
12:55 PM73 °FSunny.17 mph33%30.04 "Hg10 mi
12:35 PM73 °FSunny.13 mph33%30.04 "Hg10 mi
12:15 PM72 °FSunny.16 mph36%30.05 "Hg10 mi
11:55 AM72 °FSunny.13 mph36%30.06 "Hg10 mi
11:35 AM72 °FSunny.14 mph36%30.07 "Hg10 mi
11:15 AM70 °FSunny.15 mph38%30.07 "Hg10 mi
10:55 AM70 °FSunny.16 mph38%30.07 "Hg10 mi
10:35 AM70 °FSunny.16 mph38%30.07 "Hg10 mi
10:15 AM68 °FSunny.7 mph40%30.07 "Hg10 mi
9:55 AM64 °FSunny.9 mph49%30.07 "Hg10 mi
9:35 AM63 °FSunny.6 mph52%30.07 "Hg10 mi
9:15 AM61 °FSunny.5 mph59%30.07 "Hg10 mi
8:55 AM57 °FSunny.5 mph67%30.07 "Hg10 mi
8:35 AM55 °FSunny.6 mph72%30.06 "Hg10 mi
8:15 AM54 °FSunny.3 mph77%30.06 "Hg10 mi
7:55 AM48 °FSunny.No wind87%30.06 "Hg10 mi
7:35 AM45 °FClear.3 mph87%30.06 "Hg10 mi
7:15 AM41 °FClear.No wind93%30.05 "Hg10 mi
6:55 AM39 °FClear.5 mph93%30.04 "Hg10 mi
6:35 AM41 °FClear.No wind87%30.03 "Hg10 mi
6:15 AM43 °FClear.5 mph87%30.03 "Hg10 mi
5:55 AM43 °FClear.5 mph93%30.03 "Hg10 mi
5:35 AM43 °FClear.6 mph87%30.03 "Hg10 mi
5:15 AM43 °FClear.6 mph87%30.03 "Hg10 mi
4:55 AM43 °FClear.3 mph87%30.03 "Hg10 mi
4:35 AM43 °FClear.5 mph87%30.03 "Hg10 mi
4:15 AM43 °FClear.7 mph93%30.04 "Hg10 mi
3:55 AM45 °FClear.6 mph93%30.04 "Hg10 mi
3:35 AM48 °FClear.5 mph94%30.04 "Hg10 mi
3:15 AM48 °FClear.6 mph87%30.05 "Hg10 mi
2:55 AM46 °FClear.3 mph93%30.07 "Hg10 mi
2:35 AM48 °FClear.No wind87%30.07 "Hg10 mi
2:15 AM48 °FClear.7 mph94%30.08 "Hg10 mi
1:55 AM50 °FClear.3 mph88%30.08 "Hg10 mi
1:35 AM52 °FClear.6 mph82%30.09 "Hg10 mi
1:15 AM52 °FClear.5 mph82%30.10 "Hg10 mi
Weather by CustomWeather, © 2015

See weather overviewHow to use our weather pages